Victoria, TX

3:47 PM CST on December 06, 2019 (GMT -0600)
Victoria Regional

Weather History for KVCT - October, 2019

Change the Weather History Date:

Wednesday, October 9, 2019

  Actual Average Record
Temperature  
Mean Temperature 80 °F 74 °F  
Max Temperature 93 °F 85 °F 98 °F (1926)
Min Temperature 68 °F 63 °F 42 °F (1952)
Degree Days  
Heating Degree Days 0 0  
Month to date heating degree days 0 0  
Since 1 July heating degree days 0 1  
Cooling Degree Days 16 9  
Month to date cooling degree days 149 91  
Year to date cooling degree days 3414 2889  
Growing Degree Days 30 (Base 50)    
Moisture  
Dew Point 69 °F    
Average Humidity 78    
Maximum Humidity 96    
Minimum Humidity 47    
Precipitation  
Precipitation 0.00 in 0.14 in 2.85 in (1997)
Month to date precipitation 0.04 1.28  
Year to date precipitation 19.40 32.31  
Snow  
Snow 0.00 in 0.00 in 0.00 in (2002)
Month to date snowfall 0.0 0.0  
Since 1 July snowfall 0.0 0.0  
Since 1 September snowfall 0.0 0.0  
Snow Depth 0.00 in    
Sea Level Pressure  
Sea Level Pressure 29.91 in    
Wind  
Wind Speed 6 mph ()    
Max Wind Speed 21 mph    
Max Gust Speed 25 mph    
Visibility 6.4 miles    
Events      
T = Trace of Precipitation, MM = Missing Value Source: Averaged Metar Reports

Daily Weather History Graph

Daily Weather History Graph

Search for Another Location

Airport or City:

Astronomy

Oct. 09, 2019 Rise Set
Actual Time 7:25 AM CDT 7:04 PM CDT
Civil Twilight 7:01 AM CDT 7:28 PM CDT
Nautical Twilight 6:33 AM CDT 7:55 PM CDT
Astronomical Twilight 6:06 AM CDT 8:22 PM CDT
Moon 5:12 PM CDT (10/9) 3:39 AM CDT (10/9)
Length of Visible Light 12h 26m
Length of Day
11h 39m
Waxing Gibbous, 85% of the Moon is Illuminated
Oct 9
Waxing Gibbous
Oct 13
Full
Oct 21
Last Quarter
Oct 27
New
Nov 4
First Quarter

Hourly Weather History & Observations

Time (CDT) Temp. Heat Index Dew Point Humidity Pressure Visibility Wind Dir Wind Speed Gust Speed Precip Events Conditions
12:51 AM 70.0 °F - 66.9 °F 90% 29.96 in 6.0 mi Calm Calm - N/A   Clear
1:51 AM 70.0 °F - 66.9 °F 90% 29.95 in 5.0 mi East 5.8 mph - N/A   Clear
2:51 AM 69.1 °F - 66.9 °F 93% 29.94 in 4.0 mi ENE 3.5 mph - N/A   Clear
3:40 AM 69.1 °F - 66.9 °F 93% 29.94 in 2.5 mi East 4.6 mph - N/A   Clear
3:51 AM 69.1 °F - 66.9 °F 93% 29.93 in 2.0 mi East 4.6 mph - N/A   Clear
4:31 AM 69.1 °F - 66.9 °F 93% 29.93 in 3.0 mi East 3.5 mph - N/A   Clear
4:51 AM 68.0 °F - 66.9 °F 96% 29.94 in 2.5 mi ENE 4.6 mph - N/A   Clear
5:41 AM 68.0 °F - 66.0 °F 93% 29.93 in 3.0 mi East 4.6 mph - N/A   Clear
5:51 AM 68.0 °F - 66.9 °F 96% 29.93 in 3.0 mi East 4.6 mph - N/A   Clear
6:25 AM 68.0 °F - 66.0 °F 93% 29.94 in 2.5 mi ENE 4.6 mph - N/A   Clear
6:51 AM 68.0 °F - 66.0 °F 93% 29.94 in 2.5 mi ENE 4.6 mph - N/A   Clear
6:52 AM 68.0 °F - 66.0 °F 93% 29.94 in 2.5 mi ENE 4.6 mph - N/A   Partly Cloudy
7:33 AM 68.0 °F - 66.0 °F 93% 29.95 in 1.5 mi NE 4.6 mph - N/A   Partly Cloudy
7:51 AM 68.0 °F - 66.9 °F 96% 29.95 in 1.8 mi Calm Calm - N/A   Partly Cloudy
8:02 AM 69.1 °F - 66.9 °F 93% 29.95 in 2.0 mi Calm Calm - N/A   Partly Cloudy
8:37 AM 71.1 °F - 69.1 °F 93% 29.96 in 4.0 mi ENE 4.6 mph - N/A   Partly Cloudy
8:51 AM 73.0 °F - 70.0 °F 90% 29.96 in 4.0 mi ENE 3.5 mph - N/A   Scattered Clouds
9:51 AM 79.0 °F - 71.1 °F 77% 29.97 in 9.0 mi North - - N/A   Scattered Clouds
10:51 AM 84.9 °F 90.7 °F 72.0 °F 65% 29.96 in 10.0 mi South 4.6 mph - N/A   Partly Cloudy
11:51 AM 88.0 °F 92.9 °F 70.0 °F 55% 29.95 in 10.0 mi SSW 11.5 mph - N/A   Mostly Cloudy
12:51 PM 88.0 °F 92.1 °F 69.1 °F 53% 29.93 in 10.0 mi South 11.5 mph 17.3 mph N/A   Mostly Cloudy
1:51 PM 91.9 °F 96.9 °F 69.1 °F 47% 29.89 in 10.0 mi South 17.3 mph 21.9 mph N/A   Scattered Clouds
2:51 PM 91.0 °F 96.6 °F 70.0 °F 50% 29.85 in 10.0 mi SSE 18.4 mph 25.3 mph N/A   Partly Cloudy
3:51 PM 91.0 °F 95.6 °F 69.1 °F 48% 29.84 in 10.0 mi South 19.6 mph 24.2 mph N/A   Clear
3:52 PM 91.0 °F 95.6 °F 69.1 °F 48% 29.85 in 10.0 mi South 19.6 mph 24.2 mph N/A   Scattered Clouds
4:51 PM 89.1 °F 94.1 °F 70.0 °F 53% 29.83 in 10.0 mi South 17.3 mph - N/A   Scattered Clouds
5:51 PM 87.1 °F 91.3 °F 69.1 °F 55% 29.83 in 10.0 mi SSE 19.6 mph - N/A   Scattered Clouds
6:51 PM 84.0 °F 89.6 °F 72.0 °F 67% 29.83 in 10.0 mi SSE 13.8 mph - N/A   Partly Cloudy
7:51 PM 82.0 °F 86.7 °F 72.0 °F 71% 29.84 in 10.0 mi SSE 15.0 mph - N/A   Scattered Clouds
8:51 PM 81.0 °F 85.8 °F 73.0 °F 77% 29.85 in 10.0 mi SE 11.5 mph - N/A   Clear
9:51 PM 80.1 °F 84.2 °F 73.0 °F 79% 29.87 in 10.0 mi SE 10.4 mph - N/A   Clear
10:51 PM 80.1 °F 84.2 °F 73.0 °F 79% 29.87 in 10.0 mi SE 10.4 mph - N/A   Scattered Clouds
11:51 PM 79.0 °F - 73.0 °F 82% 29.88 in 10.0 mi SE 10.4 mph - N/A   Scattered Clouds